Location: Aix-en-Ergny
(50.5839°N, 1.9996°E)
Time: 00:31:24
(UTC+00:00)

Cosmos 2322 Rocket - Pass Details

Date: 23 October 2019
Orbit: 833 x 850 km, 71.0° (Epoch: 21 November)

Event Time Altitude Azimuth Distance (km) Brightness Sun altitude
Exits shadow 04:16:44 12° 328° (NNW) 2,324 4.3 -21.3°
Maximum altitude 04:17:40 12° 338° (NNW) 2,295 4.3 -21.2°
Drops below altitude 10° 04:19:54 10° 2° (N) 2,457 4.7 -20.8°
Sets 04:24:07 0° 32° (NNE) 3,396 5.9 -20.2°
